User: anonymous   Login
Location: Amsterdam
(30.7274°N, 84.4357°W)
Time: 17:31:54
(UTC+00:00)
Language:

SO-50 - Orbit

View from above orbital plane
View from above orbital plane
View from above satellite
View from above satellite

Ground track
Ground track

The orbit is defined by the following mean orbital elements,

1 27607U          26064.23351294 +.00000000 +00000-0 +30811-3 0 00008
2 27607  64.5518  90.5545 0075169 281.5083  77.7589 14.82761915    03
Epoch (UTC): 05 March 2026 05:36:15
Eccentricity: 0.0075169
inclination: 64.5518°
perigee height: 568 km
apogee height: 673 km
right ascension of ascending node: 90.5545°
argument of perigee: 281.5083°
revolutions per day: 14.82761915
mean anomaly at epoch: 77.7589°

The dashed part of the orbit path shows where the satellite is in the earth's shadow,  

DLR